Flag for Germany Weather past 2 weeks in Hückelhoven, North Rhine-Westphalia, Germany

50 °F

Light rain. Passing clouds.

Feels Like: 45 °F
Forecast: 45 / 54 °F
Wind: 14 mph from Southwest

Location: Monchengladbach Airport

Current Time: Nov 29, 2015 at 2:32:01 PM

Latest Report: Nov 29, 2015 at 1:50 PM

Visibility: N/A

Pressure: 29.77 "Hg

Humidity: 100%

Dew point: 50 °F

Location of HückelhovenLocation

Historic Weather in Hückelhoven — Graph


Hückelhoven temperature yesterday

Maximum temperature yesterday: 46 °F (at 12:50 PM)
Minimum temperature yesterday: 43 °F (at 9:20 AM)
Average temperature yesterday: 44 °F

Past Weeks' High & Low Weather Summary

High63 °F (Nov 15, 12:20 PM)100% (Nov 14, 4:50 PM)30.27 "Hg (Nov 14, 4:50 PM)
Low32 °F (Nov 23, 8:50 AM)63% (Nov 18, 3:20 PM)29.39 "Hg (Nov 21, 12:20 PM)
Average47 °F86%29.88 "Hg
* Reported Nov 14 1:20 PM — Nov 29 1:20 PM, Hückelhoven, Weather by CustomWeather, © 2015

Note: Actual official high and low records may vary slightly from our data, if they occured in-between our weather recording intervals... More about our weather records


Hückelhoven weather history for previous 24 hours

Time TempWeatherWind HumidityBarometerVisibility
1:20 PM
Sun, Nov 29
50 °FLight rain. Passing clouds.12 mph100%29.80 "Hg5 mi
12:50 PM50 °FRain. Partly cloudy.13 mph94%29.80 "Hg4 mi
12:20 PM52 °FLight rain. Partly cloudy.15 mph88%29.83 "Hg5 mi
11:50 AM52 °FLight rain. Partly cloudy.13 mph88%29.83 "Hg4 mi
11:20 AM52 °FPartly cloudy.14 mph88%29.83 "HgN/A
10:20 AM50 °FPassing clouds.15 mph94%29.80 "HgN/A
9:50 AM48 °FPartly cloudy.13 mph100%29.80 "HgN/A
9:20 AM48 °FPassing clouds.21 mph100%29.80 "HgN/A
8:50 AM48 °FPassing clouds.12 mph100%29.80 "HgN/A
7:50 AM48 °FRain showers. Partly cloudy.12 mph94%29.80 "Hg3 mi
8:20 PM
Sat, Nov 28
45 °FPassing clouds.12 mph76%29.92 "HgN/A
7:50 PM45 °FPassing clouds.14 mph76%29.92 "HgN/A
7:20 PM43 °FPassing clouds.10 mph76%29.92 "HgN/A
6:50 PM43 °FPassing clouds.10 mph76%29.95 "HgN/A
6:20 PM43 °FPassing clouds.12 mph71%29.95 "HgN/A
5:50 PM43 °FPassing clouds.9 mph71%29.95 "HgN/A
5:20 PM43 °FPassing clouds.8 mph76%29.98 "HgN/A
4:50 PM43 °FPassing clouds.9 mph76%29.98 "HgN/A
4:20 PM43 °FPassing clouds.9 mph76%29.98 "HgN/A
3:50 PM45 °FPassing clouds.9 mph71%29.98 "HgN/A
3:20 PM45 °FPassing clouds.9 mph76%29.98 "HgN/A
2:50 PM45 °FPassing clouds.9 mph71%29.95 "HgN/A
2:20 PM46 °FPassing clouds.9 mph66%29.95 "HgN/A
Weather by CustomWeather, © 2015

See weather overviewHow to use our weather pages